Location: Olsztyn
(53.7767°N, 20.4765°E)
Time: 07:46:18
(UTC+01:00)

Transit 4A - Pass Details

Date: 04 October 2022
Orbit: 871 x 972 km, 66.8° (Epoch: 06 December)

Event Time Altitude Azimuth Distance (km) Brightness Sun altitude
Exits shadow 04:08:20 - 315° (NW) 2,911 10.3 -23.3°
Reaches altitude 10° 04:09:24 10° 320° (NW) 2,578 10.1 -23.2°
Maximum altitude 04:14:26 27° 18° (NNE) 1,624 9.6 -22.5°
Drops below altitude 10° 04:19:23 10° 76° (ENE) 2,534 11.3 -21.8°
Sets 04:22:15 0° 88° (E) 3,465 12.1 -21.4°
